Location: Camp Crooked Creek
(37.9149°N, 85.6607°W)
Time: 01:47:26
(UTC-04:00)

Daily predictions for brighter satellites

Satellite Brightness Start Highest point End
(mag) Time Altitude Azimuth Time Altitude Azimuth Time Altitude Azimuth
COSMOS 2428 3.5 00:00:05 10° NW 00:05:23 42° WSW 00:06:47 36° SW
Cosmos 1455 2.7 00:04:26 10° N 00:07:33 58° NNW 00:07:33 58° NNW
Cosmos 1869 3.7 00:04:13 10° N 00:07:41 60° NNE 00:07:41 60° NNE
Cosmos 2297 Rocket 2.1 00:10:25 62° SE 00:10:41 63° ESE 00:16:18 10° NNE
H-2A R/B 2.7 00:10:14 41° SW 00:11:25 49° W 00:16:40 10° NNW
ATLAS 3B R/B 3.7 00:06:43 10° NNW 00:13:10 37° NE 00:16:06 26° E
Cosmos 990 Rocket 4.2 00:13:38 49° SW 00:14:52 66° WNW 00:19:59 10° NNE
Lacrosse 4 Rocket 3.3 00:15:43 10° N 00:19:14 22° NE 00:19:35 22° ENE
Cosmos 2219 Rocket 2.2 00:16:18 10° NNW 00:21:50 64° WSW 00:22:26 59° SW
ALOS 2 4.2 00:27:29 24° ENE 00:27:29 24° ENE 00:30:42 10° NNE
BREEZE-M DEB (TANK) 4.3 00:26:29 10° NW 00:27:42 28° NNW 00:27:42 28° NNW
Terra 3.2 00:34:39 28° WSW 00:35:01 28° W 00:39:07 10° NW
Cosmos 1980 3.7 00:31:42 10° NNW 00:37:18 67° WSW 00:37:35 65° SW
H-2A R/B 4.1 00:37:50 10° NNE 00:40:11 28° NE 00:40:11 28° NE
CZ-4B R/B 3.9 00:44:09 19° NE 00:44:09 19° NE 00:45:35 10° NNE
COSMOS 2455 3.1 00:39:01 10° NNW 00:44:58 58° ENE 00:45:49 53° E
Cosmos 1125 Rocket 3.4 00:46:29 82° WNW 00:46:30 82° WNW 00:51:51 10° NNE
Cosmos 2074 Rocket 4.2 00:47:39 53° ESE 00:47:59 54° E 00:54:06 10° NNE
BREEZE-M TANK 4.4 00:34:34 10° W 00:48:59 52° NNW 00:52:43 10° NE
Meteor 2-3 Rocket 4.1 00:49:35 50° E 00:49:35 50° E 00:54:54 10° NNE
Cosmos 1048 Rocket 4.2 00:44:56 10° NNW 00:50:14 65° ENE 00:50:14 65° ENE
Cosmos 2237 Rocket 2.4 00:44:52 10° NNW 00:50:26 56° WSW 00:50:31 56° WSW
Cosmos 1709 Rocket 4.3 00:52:26 49° WSW 00:53:39 58° W 00:59:40 10° N
SeaSat 1 2.5 00:55:21 75° NW 00:55:21 75° NW 00:59:54 10° NNW
Cosmos 1703 Rocket 4.2 00:51:10 10° NNW 00:54:35 52° NW 00:54:35 52° NW
Cosmos 2221 Rocket 4.1 00:51:46 10° NNW 00:55:32 57° NW 00:55:32 57° NW
Okean 1-7 3.9 00:52:28 10° N 00:55:37 47° NNE 00:55:37 47° NNE
In-Cosmos 22 Rocket 4.1 01:12:49 87° N 01:12:49 87° N 01:18:30 10° N
NOSS 2-3 (D) 4.2 01:14:26 66° NNE 01:14:26 66° NNE 01:19:13 10° NNE
Cosmos 2181 Rocket 4.5 01:11:40 10° NNW 01:17:45 49° W 01:18:32 46° WSW
ASTEX 1 3.7 01:13:46 10° N 01:17:51 60° NNE 01:17:51 60° NNE
SL-08 ROCKET BODY 4.3 01:20:32 81° SE 01:20:47 84° E 01:26:59 10° N
Cosmos 372 Rocket 4.2 01:21:19 67° NW 01:21:19 67° NW 01:26:17 10° NNE
Cosmos 158 Rocket 4.2 01:20:08 10° NNW 01:24:59 65° NE 01:24:59 65° NE
Cosmos 2184 Rocket 3.9 01:26:37 73° WSW 01:27:02 76° W 01:33:15 10° N
Cosmos 2227 Rocket 4.2 01:24:14 13° W 01:27:40 21° NW 01:31:57 10° N
Cosmos 2263 Rocket 4.0 01:35:36 19° E 01:35:36 19° E 01:38:40 10° NE
Cosmos 2333 Rocket 4.1 01:33:48 10° WNW 01:37:11 18° W 01:37:11 18° W
FALCON 9 R/B 3.3 01:26:27 10° W 01:36:25 43° WSW 01:36:25 43° WSW
ATLAS 2AS CENTAUR R/B 4.2 01:35:30 13° WSW 01:41:40 38° NW 01:49:05 10° NNE
Cosmos 2227 4.1 01:41:57 81° N 01:41:57 81° N 01:47:22 10° NNE
SL-16 R/B 2.8 01:36:54 10° NW 01:41:37 44° W 01:41:37 44° W
Cosmos 2341 Rocket 4.2 01:44:41 58° ESE 01:45:02 59° E 01:51:18 10° NNE
CZ-2C R/B 4.0 01:46:35 42° E 01:47:18 44° ENE 01:52:39 10° N
Cosmos 44 3.9 01:51:01 56° ENE 01:51:01 56° ENE 01:55:28 10° NE
Meteor 1-27 Rocket 4.3 01:45:03 10° N 01:50:40 47° ENE 01:51:04 46° E
Cosmos 2251 Rocket 3.7 01:48:04 10° NNW 01:52:48 71° NNW 01:52:48 71° NNW
Cosmos 2297 Rocket 4.4 01:52:10 13° W 01:55:13 19° NW 01:59:06 10° N
Cosmos 962 Rocket 4.4 01:57:33 73° ESE 01:57:44 73° E 02:03:50 10° N
Lacrosse 4 Rocket 3.5 01:53:58 10° NW 01:55:56 22° WNW 01:55:56 22° WNW
Geosat 4.4 01:54:50 10° NNE 01:59:41 54° WNW 01:59:41 54° WNW
Cosmos 1733 Rocket 4.2 02:02:25 41° NW 02:02:25 41° NW 02:05:41 10° N
ATLAS 3B R/B 3.2 01:57:30 10° NW 02:03:20 41° W 02:03:20 41° W
Meteor 2-10 Rocket 4.0 01:59:43 10° NNW 02:04:51 59° WNW 02:04:51 59° WNW
CZ-2C R/B 2.6 02:00:07 10° N 02:04:56 74° NNW 02:04:56 74° NNW
SL-8 Rocket 4.4 02:05:15 48° ESE 02:05:49 50° E 02:11:53 10° NNE
Cosmos 1943 4.0 02:01:49 10° N 02:07:14 43° ENE 02:08:23 38° E
USA 238 DEB 3.6 02:01:42 10° NNW 02:08:46 86° WSW 02:09:41 70° SSE
USA 238 3.6 02:01:48 10° NNW 02:08:52 87° WSW 02:09:48 70° SSE
Meteor 2-6 Rocket 4.2 02:05:42 10° N 02:11:32 81° W 02:11:32 81° W
H-2A ROCKET BODY 4.1 01:44:40 10° W 02:14:21 45° SSW 02:14:26 45° SSW
Cosmos 1603 3.9 02:10:22 10° NNW 02:15:27 62° WNW 02:15:27 62° WNW
Cosmos 1606 4.4 02:12:32 10° N 02:14:46 33° N 02:14:46 33° N
Cosmos 1378 Rocket 4.4 02:12:34 10° N 02:15:49 47° NNE 02:15:49 47° NNE
Meteor 2-13 Rocket 4.4 02:17:20 68° ESE 02:17:40 70° E 02:23:46 10° NNE
Cosmos 2366 rocket 4.3 02:27:26 50° ESE 02:28:09 53° E 02:34:08 10° NNE
Okean 2 Rocket 3.8 02:30:45 53° NE 02:30:45 53° NE 02:34:23 10° NNE
USA 234 4.3 02:24:24 10° ESE 02:30:30 44° NE 02:36:37 10° NW
Cosmos 494 Rocket 4.5 02:25:38 10° NNW 02:29:55 51° WNW 02:29:55 51° WNW
MOS 1-B Rocket 4.5 02:35:02 42° W 02:35:02 42° W 02:39:57 10° NNW
Nadezhda 3 Rocket 4.3 02:29:13 10° NNW 02:35:10 48° W 02:35:21 48° W
Cosmos 1782 Rocket 4.2 02:37:33 53° N 02:37:33 53° N 02:40:57 10° N
NOSS 3-2 (C) 4.4 02:35:03 10° NNW 02:42:32 62° NE 02:48:50 17° SE
Cosmos 1727 Rocket 4.2 02:44:58 10° N 02:51:11 64° E 02:52:37 50° SE
Cosmos 864 Rocket 4.4 02:51:33 66° SSE 02:52:25 80° E 02:58:36 10° N
CZ-4C R/B 2.8 02:47:07 10° NNW 02:54:22 86° WSW 02:57:14 44° SSE
Cosmos 1825 3.9 03:01:12 26° NW 03:01:12 26° NW 03:03:23 10° NNW
Cosmos 1408 4.5 03:02:06 26° NW 03:02:06 26° NW 03:04:14 10° NNW
Cosmos 1975 Rocket 3.9 02:57:06 10° NNW 03:00:20 43° NW 03:00:20 43° NW
ERS-2 4.1 02:59:44 10° NE 03:02:13 24° E 03:02:13 24° E
NOSS 3-4 (A) 3.6 03:01:27 53° WSW 03:02:52 67° NW 03:09:25 10° NNE
NOSS 3-4 (C) 3.6 03:01:33 53° WSW 03:02:58 68° NW 03:09:31 10° NNE
Cosmos 1607 4.2 03:00:03 10° NW 03:05:24 47° W 03:05:24 47° W
NOSS 3-2 (A) 3.9 02:59:16 10° NW 03:06:53 84° WSW 03:10:44 35° SSE
PSLV R/B 3.8 03:04:01 10° N 03:07:38 64° N 03:07:38 64° N
Cosmos 1371 Rocket 3.9 03:12:16 74° WSW 03:12:39 79° WNW 03:18:03 10° NNE
RESURS DK-1 2.7 03:13:25 62° N 03:13:25 62° N 03:16:57 10° NNE
Cosmos 1536 Rocket 3.9 03:08:58 10° N 03:13:18 58° E 03:13:24 57° E
Cosmos 2056 Rocket 3.4 03:13:32 72° SSE 03:13:58 78° ESE 03:19:15 10° NNE
Cosmos 1844 Rocket 3.9 03:14:55 27° SE 03:16:19 30° ESE 03:21:10 10° NE
Cosmos 2263 Rocket 2.5 03:17:17 48° W 03:18:10 53° WNW 03:23:45 10° NNE
Cosmos 407 Rocket 4.4 03:19:47 10° N 03:24:44 45° ENE 03:27:41 22° SE
Cosmos 2151 Rocket 3.7 03:28:41 61° WNW 03:28:41 61° WNW 03:32:54 10° N
Meteor 1-25 Rocket 4.2 03:27:44 54° S 03:29:03 78° E 03:34:51 10° NNE
COSMOS 2406 3.9 03:24:32 10° NNW 03:30:12 52° ENE 03:34:45 15° SE
CRYOSAT 2 4.5 03:25:53 10° N 03:30:38 57° W 03:30:49 57° W
Cosmos 2278 Rocket 4.1 03:32:47 15° SE 03:35:27 21° E 03:39:32 10° NE
SL-27 R/B 3.9 03:34:43 10° N 03:38:08 36° ENE 03:39:04 30° ESE
SL-16 R/B 4.1 03:33:00 10° SE 03:38:24 32° ENE 03:43:47 10° N
Cosmos 909 Rocket 4.3 03:38:46 43° SW 03:40:56 68° WNW 03:48:09 10° NNE
Okean 1 Rocket 3.3 03:41:19 52° SE 03:42:01 61° E 03:46:25 10° NNE
IRS-P3 4.2 03:39:54 10° N 03:45:12 62° WNW 03:46:22 49° SW
Cosmos 1867 3.7 03:46:01 10° NW 03:51:18 51° WSW 03:51:47 50° SW
NOSS 2-2 (E) 4.4 03:51:36 34° SE 03:52:16 36° ESE 03:56:29 10° NE
Cosmos 1821 Rocket 4.1 03:52:01 34° S 03:54:58 79° E 04:01:23 10° N
Cosmos 1242 Rocket 4.3 03:52:21 10° NNW 03:54:01 22° NW 03:54:01 22° NW
CBERS 1 LM4 rocket 4.3 03:53:10 10° NNE 03:58:07 88° WNW 03:59:26 50° SSW
GP-B 3.0 03:53:41 10° N 03:58:08 79° W 03:58:56 59° SSW
Resurs 1-4 Rocket 3.3 03:53:26 10° NNE 03:58:17 35° E 04:01:30 18° SSE
Cosmos 1536 4.2 04:00:51 24° SE 04:02:35 35° E 04:06:18 10° NNE
Abrixas rocket 3.8 04:02:23 27° NW 04:03:06 30° NNW 04:06:06 10° NE
Iridium 4 Rocket 4.3 04:04:50 10° NNW 04:08:55 30° W 04:09:20 29° W
Meteor 2-21 Rocket 4.4 04:08:12 31° S 04:11:18 86° E 04:17:26 10° N
USA 234 3.3 04:07:00 10° SSE 04:13:21 55° SW 04:19:45 10° NW
Gbstr 26 Del rocket 2.6 04:12:40 59° SW 04:13:21 86° SE 04:17:07 10° NE
Cosmos 1633 3.8 04:13:03 25° SE 04:14:29 37° E 04:17:51 10° NNE
Cosmos 1025 Rocket 3.8 04:11:14 10° N 04:15:26 50° E 04:18:38 16° SSE
Cosmos 1452 Rocket 3.6 04:18:09 37° SW 04:20:06 61° WNW 04:25:19 10° N
Cosmos 724 4.3 04:14:17 10° NNW 04:20:28 84° WSW 04:26:40 10° SSE
ARIANE 5 R/B 2.5 04:15:52 10° NNE 04:20:53 80° ESE 04:23:26 30° S
ADEOS 3.7 04:16:13 10° N 04:21:21 59° WNW 04:23:30 34° SW
Cosmos 1809 Rocket 4.5 04:18:37 32° SSW 04:21:27 64° W 04:27:33 10° N
SME Rocket 3.9 04:20:04 10° SE 04:23:39 44° ENE 04:27:27 10° N
SL-08 R/B 4.2 04:26:35 30° WSW 04:27:17 31° W 04:31:38 10° NW
COSMOS 2487 3.7 04:27:37 10° N 04:31:06 43° ENE 04:34:34 10° SE
UNK 3.9 04:27:19 13° SSE 04:31:28 72° ENE 04:36:06 10° N
Centaur D-1A AC-32 4.5 04:28:20 25° SW 04:31:41 34° S 05:00:23 10° ESE
EO 1 Del DPAF 3.4 04:29:12 19° SSE 04:31:55 75° ENE 04:35:48 10° N
CENTAUR R/B 3.2 04:24:04 10° NNW 04:32:01 83° ENE 04:40:21 10° SE
Cosmos 1420 Rocket 4.0 04:29:24 28° SSW 04:32:16 86° ESE 04:37:36 10° NNE
Tiangong 1 2.4 04:34:49 25° SSE 04:34:49 25° SSE 04:36:22 10° SE
Cosmos 1544 Rocket 4.0 04:30:36 20° SSE 04:33:31 59° E 04:37:51 10° NNE
Meteor 1-11 Rocket 3.8 04:30:22 26° SSW 04:33:48 74° W 04:39:46 10° N
USA 161 2.3 04:35:20 35° WNW 04:35:20 35° WNW 04:37:35 10° NNW
ERS-2 3.9 04:33:51 10° NNW 04:36:28 18° WNW 04:37:04 18° W
Meteor 2-16 Rocket 4.4 04:33:20 24° SSW 04:37:10 72° W 04:43:19 10° N
Cosmos 1812 4.1 04:34:14 10° NW 04:37:16 22° W 04:37:16 22° W
MOS 1-B 4.4 04:35:14 10° NNE 04:41:04 78° ESE 04:45:39 17° S
Meteor 1-13 Rocket 4.4 04:35:37 10° NNW 04:41:11 58° W 04:45:17 19° SSW
CZ-4C R/B 4.3 04:37:56 10° WNW 04:42:16 16° WSW 04:42:19 16° WSW
H-2A R/B 4.3 04:39:50 22° SW 04:44:31 30° S 05:16:25 10° SE
OTV 4 2.2 04:48:07 19° SSE 04:48:07 19° SSE 04:49:21 10° SE
Cosmos 1400 Rocket 2.7 04:44:58 24° S 04:47:12 85° E 04:51:08 10° N
CZ-2D R/B 2.2 04:44:56 10° N 04:50:23 77° WNW 04:54:26 19° SSW
Yuri Rocket 4.4 04:50:03 23° SW 04:52:01 29° S 04:56:04 10° SE
Cosmos 1892 Rocket 3.4 04:52:54 10° N 04:57:16 81° W 05:01:35 10° S
Cosmos 1140 Rocket 3.4 04:52:11 10° NNW 04:57:17 67° WSW 05:02:21 10° S
Cosmos 1844 Rocket 3.6 04:56:36 19° WSW 05:00:03 35° WNW 05:05:15 10° N
NOSS 2-2 (D) 4.0 04:59:44 21° WSW 05:02:13 48° NW 05:06:47 10° NNE
Meteor 1-23 Rocket 4.2 04:57:06 10° NNW 05:02:48 77° W 05:08:25 10° S
BREEZE-M DEB (TANK) 2.2 05:02:53 24° SSW 05:04:15 47° SE 05:07:04 10° ENE
Cosmos 1844 4.3 05:00:55 19° SW 05:04:40 44° WNW 05:10:09 10° N
Cosmos 1850 Rocket 3.9 04:59:35 10° NNW 05:04:50 77° WSW 05:10:05 10° S
Timation 2 Rocket 4.2 04:59:33 10° NNW 05:05:42 70° ENE 05:11:38 10° SSE
Cosmos 1741 Rocket 3.9 05:00:44 10° NNW 05:06:01 78° WSW 05:11:15 10° SSE
CZ-4B R/B 4.4 05:01:46 10° NNE 05:06:04 40° E 05:10:16 10° SSE
Cosmos 1447 Rocket 4.4 05:03:20 10° N 05:09:29 74° W 05:15:34 10° S
Cosmos 2061 Rocket 4.3 05:06:00 10° S 05:12:16 75° E 05:18:39 10° N
Cosmos 1315 Rocket 2.8 05:09:04 13° S 05:12:40 82° W 05:16:45 10° N
Cosmos 2297 3.8 05:11:17 11° SSW 05:16:42 80° ESE 05:22:24 10° NNE
Cosmos 2278 Rocket 2.6 05:14:38 15° SW 05:19:05 50° WNW 05:24:37 10° NNE
APEX 3.3 05:17:41 12° S 05:20:08 47° ESE 05:23:11 10° NE
Okean 2 3.5 05:16:18 10° NNW 05:20:19 55° W 05:24:20 10° S
SL-16 R/B 3.1 05:16:06 10° SSW 05:21:51 38° W 05:27:37 10° NNW
Meteor 1-5 Rocket 4.4 05:17:43 10° SSW 05:23:36 66° W 05:29:22 10° N
Okean O Rocket 1.6 05:21:05 10° N 05:25:27 74° WNW 05:29:46 10° SSW
Cosmos 1975 3.2 05:22:49 10° S 05:26:47 67° E 05:30:46 10° NNE
CZ-2C R/B 3.8 05:23:30 10° S 05:28:13 73° WSW 05:33:00 10° NNW
ATLAS 5 CENTAUR R/B 2.5 05:22:15 10° NNW 05:28:20 84° ENE 05:34:47 10° SSE
Cosmos 1602 Rocket 3.7 05:24:23 10° N 05:28:43 78° E 05:33:03 10° S
Cosmos 1346 Rocket 4.4 05:25:54 10° N 05:29:44 39° ENE 05:33:30 10° SSE
CZ-2D R/B 3.9 05:27:31 10° N 05:31:18 43° WNW 05:35:08 10° SW
CZ-4B R/B 3.3 05:30:39 10° NNE 05:36:21 81° WNW 05:41:59 10° SSW
USA 129 2.9 05:35:17 12° SSW 05:36:49 23° W 05:38:37 10° NW
Cosmos 1461 4.2 05:33:36 11° WSW 05:37:45 34° NW 05:41:59 10° NNE
Resurs 1-4 Rocket 3.3 05:33:33 10° NNW 05:37:56 27° WNW 05:42:18 10° WSW
Cosmos 2082 Rocket 2.6 05:33:45 10° NNW 05:39:29 72° ENE 05:45:10 10° SSE
Meteor 2-4 Rocket 4.4 05:36:12 10° NNW 05:40:53 31° W 05:45:31 10° SSW
IRS-1C Rocket 4.4 05:36:02 10° N 05:41:07 50° WNW 05:46:10 10° SW
Cosmos 1455 Rocket 4.2 05:42:05 10° SW 05:45:57 29° WNW 05:49:50 10° NNW
Cosmos 1626 Rocket 3.6 05:43:09 10° NNW 05:47:28 63° W 05:51:48 10° S
UNKNOWN OBJECT B 4.5 05:44:34 10° NNW 05:47:38 21° WNW 05:50:40 10° WSW
Cosmos 1743 4.4 05:44:52 10° SSE 05:48:21 34° E 05:51:49 10° NNE
Cosmos 2016 Rocket 4.1 05:45:02 10° SSW 05:51:21 75° W 05:57:38 10° N
CZ-3 Stage 3 4.4 05:23:33 10° WSW 05:56:45 49° S 06:02:55 10° ESE
